カタログに戻る

STARLINK-36847

運用中通信VLEO
NORAD 67910·PAYLOAD·🇺🇸 United States

打ち上げ Feb 22, 2026 から Vandenberg Space Force Base

Loading…

次のパス (今後24時間)

TLE

最新Source: CelesTrak SupGP

元期: Sep 15, 2026, 04:25 UTC

1 67910C 26036G   26258.18451389 -.00044111  00000+0 -15973-2 0  2589
2 67910  43.0012 255.2247 0001371 268.9678  14.4010 15.27608788    13

AllMySatでSTARLINK-36847をリアルタイム追跡

Download on the App Store